STARLINK-5682, 55457

Orbit data source: Space-Track

STARLINK-5682, 55457 is a payload satellite owned by SpaceX/Seattle (US) in LEO that was launched on Thu, 02 Feb 2023 UTC via an FALCON 9 launch vehicle from the Air Force Eastern Test Range (AFETR). Payload-class satellites include a variety of spacecraft equipped with specific instruments for various scientific and technological missions. These include communications satellites like Starlink; space stations such as the ISS; scientific satellites like the Hubble; Earth observation satellites from companies like Planet Labs, Umbra, and HawkEye 360; GPS; miniature CubeSats for education and research; and military/defense satellites.

Loading next visibility...
Identifier
55457, 2023-015J
Orbit
LEO
Country
Flag of USUS
Related business
Manufacturer
SpaceX/Seattle
Mission
Operational Commercial Communications
Bus & Motor
STARLINK, Unknown motor
Mass
305 kg wet, ~290 kg dry
Launch date (UTC)
2023-02-02 (3 years ago)
Launch vehicle
FALCON 9
Launch site
Air Force Eastern Test Range (AFETR)
Object type
Payload
Rocket body
Debris
Shape & HBR
Box + 1 Pan, 10.1 m
Radar Cross Section
13.562 m², Large (>1 m²)

Expand to show TLE details & history
Last TLE update: 12 hours ago

TLE from 12 hours ago
0 STARLINK-5682
1 55457U 23015J   25288.65182163  .00001910  00000-0  15637-3 0  9990
2 55457  43.0034  34.3337 0000690 256.7360 103.3406 15.02548517148939
Epoch: 2025-10-15T15:38Z
TLE epoch observation values (Epoch: 2025-10-15T15:38:37.388Z)
Latitude
0.00001°
Longitude
135.25509°
Altitude
558.93 km
Speed
7.584 km/s
True Right ascension
02h 17m 20s
True Declination
0° 00' 00"
Sunlit
Object was in full shadow at epoch
Visualization orbit readout
Latitude
Unknown
Longitude
Unknown
Altitude
Unknown
Speed
Unknown
Apparent Right ascension
Unknown
Apparent Declination
Unknown
Sunlit
N/A
Visualization observer readout
Local Sidereal Time
22:01:39
Azimuth
Unknown
Elevation
Unknown
Doppler factor
Unknown
Orbital elements
Apogee altitude
561.443 km
Perigee altitude
560.486 km
Semi-major axis
6,939.101 km
Eccentricity
0.00007
Inclination
43.0034°
RAAN
34.3337°
Arg. of periapsis
256.736°
True anomaly
103.34829°
Mean anomaly
103.3406°
Eccentric anomaly
103.34445°
Mean motion
3.75481 °/min
Orbital period
95.88 mins
BSTAR
0.00015637
Loading maneuver chart data...
Computing Atmospheric mass density...
Loading historical data...
Loading historical data...
Loading historical data...
Loading historical data...
Loading historical data...
Loading historical data...
Loading historical data...

Documentation

Showing up to 5 results
|